Capitol Logistics 3252


MYNN
Lynden Pindling International Airport
Nassau, BS
KMIA
Miami International Airport
Miami, US

Activity Log

Date Flight Route Aircraft Duration
04/14/2020 CPX3252 ZQA FOWEE9 SF34 1h 31m
11/05/2019 CPX652 ZQA FOWEE9 SF34 0h 59m
10/12/2019 CPX652 ZQA FOWEE9 SF34 1h 14m
09/14/2019 CPX652 ZQA FOWEE9 SF34 0h 47m
09/12/2019 CPX652 ZQA FOWEE9 SF34 0h 46m
09/04/2019 CPX652 ZQA FOWEE9 SF34 0h 43m
08/23/2019 CPX652 ZQA FOWEE9 SF34 0h 44m
06/27/2019 CPX652 ZQA FOWEE9 SF34 0h 43m
06/26/2019 CPX652 ZQA FOWEE9 SF34 0h 44m

Route Details

Aircraft Information
Primary: Saab 340AF
Backup: Not Available
Route Data
Distance: 160nm
Sched. Duration: 1h 10m
Avg. Duration: 0h 63m (-46m)
Times Flown: 9
Recm'd Route: ZQA FOWEE9
Planned Altitude: 14,000ft
Origin Wx: MYNN 251300Z 12005KT 090V150 9000 -SHRA SCT012CB OVC060 23/21 A2999 RMK CB SCT ALQDS
Dest. Wx: KMIA 251320Z VRB03G15KT 7SM -RA BKN010 BKN017 OVC037 26/25 A2991 RMK AO2 LTG DSNT SE P0001 T02560250 $
Notes:

Financial History
Total Freight: 47,515lbs
Average Load: 5,279lbs/flt
Fuel Used: 7,298lbs
Avg. Fuel Used: 811lbs/flt
Fuel Expense: $7,079
Avg. Fuel Expense: $787
Avg. Fuel Cost: $0.97/lbs
Total Gross Income: $53,955
Pilot Pay: $1,981
Total Expenses: $6,295
Total Revenue: $38,639
Average Revenue: $5,995.05